TimeMDT,TemperatureF,Dew PointF,Humidity,Sea Level PressureIn,VisibilityMPH,Wind Direction,Wind SpeedMPH,Gust SpeedMPH,PrecipitationIn,Events,Conditions,WindDirDegrees,DateUTC
12:56 AM,46.0,33.1,61,29.91,10.0,SE,3.5,-,N/A,,Clear,130,2012-10-02 06:56:00
1:56 AM,48.0,30.9,52,29.89,10.0,Calm,Calm,-,N/A,,Clear,0,2012-10-02 07:56:00
2:56 AM,48.0,30.0,50,29.87,10.0,SSE,5.8,-,N/A,,Clear,150,2012-10-02 08:56:00
3:56 AM,50.0,30.0,46,29.86,10.0,NE,5.8,-,N/A,,Clear,50,2012-10-02 09:56:00
4:56 AM,53.1,28.9,40,29.86,10.0,Calm,Calm,-,N/A,,Clear,0,2012-10-02 10:56:00
5:56 AM,48.9,30.0,48,29.87,10.0,SE,3.5,-,N/A,,Clear,140,2012-10-02 11:56:00
6:56 AM,48.0,28.9,48,29.88,10.0,Calm,Calm,-,N/A,,Clear,0,2012-10-02 12:56:00
7:56 AM,46.0,30.9,56,29.89,10.0,SE,5.8,-,N/A,,Clear,140,2012-10-02 13:56:00
8:56 AM,59.0,33.1,38,29.89,10.0,Calm,Calm,-,N/A,,Clear,0,2012-10-02 14:56:00
9:56 AM,66.0,33.1,29,29.88,10.0,North,3.5,-,N/A,,Clear,350,2012-10-02 15:56:00
10:56 AM,68.0,34.0,28,29.84,10.0,NW,4.6,-,N/A,,Clear,310,2012-10-02 16:56:00
11:56 AM,70.0,-9999,N/A,29.82,10.0,WSW,9.2,-,N/A,,Clear,240,2012-10-02 17:56:00
12:00 PM,71.6,24.8,17,29.89,10.0,WNW,9.2,-,N/A,,Clear,290,2012-10-02 18:00:00
12:56 PM,71.1,24.1,17,29.81,10.0,WNW,9.2,-,N/A,,Clear,290,2012-10-02 18:56:00
1:56 PM,73.4,23.0,15,29.84,10.0,West,17.3,28.8,N/A,,Clear,270,2012-10-02 19:56:00
2:09 PM,73.4,23.0,15,29.84,10.0,West,17.3,28.8,N/A,,Clear,270,2012-10-02 20:09:00
2:56 PM,73.0,22.1,15,29.74,10.0,West,17.3,28.8,N/A,,Clear,270,2012-10-02 20:56:00
3:56 PM,78.1,21.9,12,29.70,10.0,West,15.0,23.0,N/A,,Clear,270,2012-10-02 21:56:00
4:56 PM,77.0,16.0,10,29.68,10.0,West,17.3,24.2,N/A,,Clear,260,2012-10-02 22:56:00
5:56 PM,73.0,16.0,11,29.71,10.0,WNW,13.8,-,N/A,,Clear,300,2012-10-02 23:56:00
6:56 PM,62.6,15.8,16,29.80,10.0,WNW,9.2,-,N/A,,Clear,300,2012-10-03 00:56:00
7:56 PM,60.8,17.6,19,29.81,10.0,WNW,5.8,-,N/A,,Clear,290,2012-10-03 01:56:00
8:56 PM,57.9,24.1,27,29.77,10.0,NNW,11.5,-,N/A,,Clear,330,2012-10-03 02:56:00
9:56 PM,55.9,24.1,29,29.79,10.0,NNW,6.9,-,N/A,,Clear,340,2012-10-03 03:56:00
10:56 PM,55.0,23.0,29,29.81,10.0,WSW,8.1,-,N/A,,Clear,240,2012-10-03 04:56:00
11:56 PM,51.1,23.0,33,29.81,10.0,West,5.8,-,N/A,,Clear,260,2012-10-03 05:56:00